Weather History for KLIC - August, 2013

Change the Weather History Date:

Wednesday, August 28, 2013

  Actual Average Record
Temperature  
Mean Temperature 70 °F -  
Max Temperature 91 °F - 96 °F (2011)
Min Temperature 48 °F - 37 °F (2004)
Degree Days  
Heating Degree Days 0    
Month to date heating degree days 13  
Cooling Degree Days 5    
Month to date cooling degree days 135  
Growing Degree Days 20 (Base 50)    
Moisture  
Dew Point 44 °F    
Average Humidity 51    
Maximum Humidity 86    
Minimum Humidity 15    
Precipitation  
Precipitation 0.00 in - 0.65 in (2011)
Month to date precipitation 2.98  
Year to date precipitation 12.09  
Sea Level Pressure  
Sea Level Pressure 29.93 in    
Wind  
Wind Speed 3 mph (NE)    
Max Wind Speed 14 mph    
Max Gust Speed 18 mph    
Visibility 10 miles    
Events      
T = Trace of Precipitation, MM = Missing Value Source: NWS Daily Summary

Daily Weather History Graph

Daily Weather History Graph

Search for Another Location

Airport or City:

Trip Planner

Search our weather history database for the weather conditions in past years. The results will help you decide how hot, cold, wet, or windy it might be!

Date:

Astronomy

Aug. 28, 2013 Rise Set
Actual Time 6:19 AM MDT 7:31 PM MDT
Civil Twilight 5:52 AM MDT 7:58 PM MDT
Nautical Twilight 5:19 AM MDT 8:31 PM MDT
Astronomical Twilight 4:44 AM MDT 9:06 PM MDT
Moon No Moon Rise 2:09 PM MDT (8/28)
Length of Visible Light 14h 06m
Length of Day
13h 11m
Waning Gibbous, 47% of the Moon is Illuminated
Aug 28
Waning Gibbous
Sep 5
New
Sep 12
First Quarter
Sep 19
Full
Sep 26
Last Quarter

Hourly Weather History & Observations

Time (MDT) Temp. Dew Point Humidity Pressure Visibility Wind Dir Wind Speed Gust Speed Precip Events Conditions
12:55 AM 55.0 °F 46.9 °F 74% 29.92 in 10.0 mi Calm Calm - N/A   Clear
1:55 AM 53.1 °F 46.9 °F 80% 29.92 in 10.0 mi North 3.5 mph - N/A   Clear
2:55 AM 52.0 °F 46.0 °F 80% 29.91 in 10.0 mi NNW 4.6 mph - N/A   Clear
3:55 AM 51.1 °F 46.0 °F 83% 29.91 in 10.0 mi Calm Calm - N/A   Clear
4:55 AM 50.0 °F 45.0 °F 83% 29.92 in 10.0 mi North 4.6 mph - N/A   Clear
5:55 AM 50.0 °F 46.0 °F 86% 29.94 in 10.0 mi Calm Calm - N/A   Clear
6:55 AM 52.0 °F 46.9 °F 83% 29.96 in 10.0 mi Calm Calm - N/A   Clear
7:55 AM 64.9 °F 50.0 °F 58% 29.95 in 10.0 mi NW 9.2 mph - N/A   Clear
8:55 AM 73.9 °F 53.1 °F 48% 29.95 in 10.0 mi WNW 6.9 mph - N/A   Clear
9:55 AM 80.1 °F 50.0 °F 35% 29.95 in 10.0 mi Calm Calm - N/A   Clear
10:55 AM 82.9 °F 50.0 °F 32% 29.94 in 10.0 mi Calm Calm - N/A   Clear
11:55 AM 87.1 °F 46.0 °F 24% 29.93 in 10.0 mi East 9.2 mph - N/A   Clear
12:55 PM 87.1 °F 43.0 °F 21% 29.94 in 10.0 mi Variable 6.9 mph - N/A   Clear
1:55 PM 89.1 °F 42.1 °F 19% 29.93 in 10.0 mi South 9.2 mph - N/A   Clear
2:55 PM 90.0 °F 37.9 °F 16% 29.91 in 10.0 mi NE 9.2 mph - N/A   Clear
3:55 PM 90.0 °F 36.0 °F 15% 29.90 in 10.0 mi ENE 4.6 mph - N/A   Clear
4:55 PM 90.0 °F 37.0 °F 15% 29.90 in 10.0 mi Variable 5.8 mph - N/A   Clear
5:55 PM 89.1 °F 36.0 °F 15% 29.91 in 10.0 mi ESE 8.1 mph - N/A   Clear
6:55 PM 80.1 °F 44.1 °F 28% 29.94 in 10.0 mi SE 6.9 mph - N/A   Clear
7:55 PM 73.0 °F 44.1 °F 35% 29.93 in 10.0 mi SSE 4.6 mph - N/A   Clear
8:55 PM 69.1 °F 42.1 °F 38% 29.94 in 10.0 mi SE 4.6 mph - N/A   Clear
9:55 PM 62.1 °F 43.0 °F 50% 29.95 in 10.0 mi Calm Calm - N/A   Clear
10:55 PM 57.0 °F 45.0 °F 64% 29.97 in 10.0 mi Calm Calm - N/A   Clear
11:55 PM 55.9 °F 43.0 °F 62% 29.95 in 10.0 mi North 4.6 mph - N/A   Clear